Погода Мыс Стерлегова

Погода Мыс Стерлегова : погода сейчас, прогноз погоды и архив. Всё, что Вы хотите узнать о погоде Мыс Стерлегова!

Поиск расширенной информации на нашем сайте:

Другие новости

Новости СМИ2

Главная страница сайта

Новости сайта

03.07.2017

Напоминаем, что на нашем специализированном сайте Метеоцентр.Азия вы можете получить высокодетализированные автоматические прогнозы погоды по пунктам России, СНГ и мира в авиационном формате (включающие направление и скорость ветра, видимость, явления погоды, количество и форму облачности, нижнюю и верхнюю границу облачности).


Погода Мыс Стерлегова - сегодня

Время (UTC), дата Ветер
(°,м/с) 
Видим.   Явления Облачность Т
(°С)
Тd
(°С)
f(%) Тe
(°С)
Pmin
(гПа)
dP
(гПа)
Po
(мм)
O2
(г/м3)
Тmin Tmax R s Состояние
почвы
21 20.11.17 100 (В) 20000 м    8/0 
[Sc]
-17.8 -20 83 -23  1034.7  0.8  775  336           
00 21.11.17 060 (СВ) 20000 м    10/10 480 м 
[Sc]
-15.2 -17.3 84 -22  1035.1  0.4  775  332  -22.7      13  неравномерный
сухой снег
100% 
03 21.11.17 070 (В) 20000 м    10/10 800 м 
[Sc]
-15.6 -17.8 83 -20  1035.7  0.6  776  333           
06 21.11.17 070 (В) 20000 м    10/9 720 м верхняя 
[Sc|Ci fib]
-13.9 -16.5 81 -20  1036.1  0.5  776  331           
09 21.11.17 070 (В) 7-10{11}  20000 м  позёмок  9/8 240 м верхняя 
[St|Ci fib]
-19.6 -22.2 80 -27  1037.5  1.3  777  339           
12 21.11.17 070 (В) 6{12}  20000 м    10/8 400 м верхняя 
[Sc|Ci fib]
-23.5 -26.6 76 -31  1038.3  0.7  778  345    -13.6       
15 21.11.17 070 (В) 6{11}  20000 м    4/3 600 м верхняя 
[Sc|Ci fib]
-25.8 -29 75 -34  1038.8  0.6  778  348           
18 21.11.17 060 (СВ) 20000 м  позёмок  3/0 верхняя 
[Ci fib]
-27.6 -31 73 -38  1039.1  0.3  778  351           
00 22.11.17 080 (В) 20000 м    10/0 средняя 
[Ac und]
-23 -26.3 74 -30  1042.4  1.4  781  345  -27.8      13  неравномерный
сухой снег
100% 
03 22.11.17 080 (В) 20000 м    10/0 средняя 
[Ac und]
-20.4 -23.6 76 -27  1043.4  1.1  782  342           
06 22.11.17 070 (В) 20000 м    10/0 средняя 
[Ac und]
-19.2 -23 72 -25  1043.7  0.3  782  341           
09 22.11.17 080 (В) 20000 м    5/0 средняя 
[Ac trans]
-20.9 -24.3 74 -29  1044.7  0.9  782  343           
12 22.11.17 080 (В) 20000 м    4/0 средняя 
[Ac trans]
-23 -25.9 77 -29  1044.9  0.3  783  346    -18.2       
15 22.11.17 140 (ЮВ) 20000 м    4/0 средняя 
[Ac trans]
-25.5 -28.5 76 -29  1045  0.1  783  350           
18 22.11.17 100 (В) 20000 м    6/0 средняя, верхняя 
[Ac trans|Ci fib]
-24.8 -28.2 73 -28  1045.3  0.3  783  349           
21 22.11.17 130 (ЮВ) 20000 м    3/0 верхняя 
[Ci fib]
-28.5 -31.8 73 -32  1045.9  0.5  783  354           
00 23.11.17 130 (ЮВ) 20000 м    4/0 верхняя 
[Ci fib]
-28 -31.2 74 -33  1045.5  -0.4  783  354  -28.5      13  неравномерный
сухой снег
100% 
03 23.11.17 160 (Ю) 20000 м    8/0 средняя, верхняя 
[Ac trans|Ci fib]
-25.2 -28.4 75 -28  1045.3  -0.2  783  349           
06 23.11.17 160 (Ю) 20000 м    10/0 средняя 
[Ac und]
-23 -26.4 74 -28  1045  -0.2  783  346           
09 23.11.17 190 (Ю) 20000 м    10/10 750 м 
[Sc]
-20.7 -23.6 78 -24  1044.7  -0.3  782  343           
12 23.11.17 200 (Ю) 20000 м    10/10 660 м 
[Sc]
-18.8 -21.3 81 -25  1043.6  -1  782  340    -18.7       
15 23.11.17 120 (ЮВ) 20000 м    10/10 500 м 
[Sc]
-18.2 -20.9 79 -22  1043.1  -0.6  781  339           
18 23.11.17 180 (Ю) 20000 м    10/10 420 м 
[Sc]
-16.6 -18.9 82 -19  1041.8  -1.2  780  336           
21 23.11.17 190 (Ю) 20000 м    10/10 420 м 
[Sc]
-16.9 -19.3 82 -22  1040.6  -1.2  779  336           
00 24.11.17 200 (Ю) 20000 м    10/10 420 м 
[Sc]
-16.6 -18.9 82 -22  1039.5  -1.2  779  336  -18.9      13  неравномерный
сухой снег
100% 
Время (UTC), дата Ветер
(°,м/с) 
Видим.   Явления Облачность Т
(°С)
Тd
(°С)
f(%) Тe
(°С)
Pmin
(гПа)
dP
(гПа)
Po
(мм)
O2
(г/м3)
Тmin Tmax R s Состояние
почвы

Для получения пояснительной информации подведите курсор к названию столбца.

ПОГОДА Мыс Стерлегова - архив

Всё, что Вы хотите узнать о погоде Мыс Стерлегова - удобно и подробно!

Выберите нужную дату (начиная с 1 января 2015* года) и нажмите кнопку "Найти".
Будут отображены архивные сводки погоды по пункту Мыс Стерлегова, начиная с указанной даты.


Отображать данные в формате CSV (для использования в таблицах Excel)


Внимание! Наш архив погоды предназначен исключительно для личного некоммерческого использования в познавательных целях. Если Вам необходимы официальные справки о состоянии погоды (для производственных, юридических, коммерческих и т.п. целей), обращайтесь в органы Росгидромета.

*Примечание: данная дата относится к архиву по метеостанциям СССР (Россия, СНГ, Балтия).
Архив по метеостанциям Зарубежной Европы и Азии (кроме Китая) хранится 10 дней, по другим регионам земного шара (Китай, Африка, Америка, Австралия, Океания) - 1 день.

Мыс Стерлегова - район местоположения метеостанции


Название, широта, долгота, высота метеостанции:
Мыс Стерлегова 75.4°ш. 88.8°д. 10 м над ур. моря [Российская Федерация]

Дополнительная информация

В oтличие oт бoльшинства пoгoдных сайтoв мы публикуем пoдрoбную метеoинфoрмацию в детальнoм прoфессиoнальнoм фoрмате.

Характеристики температуры и влажнoсти вoздуха измеряются на высoте 2 м в тени вдали oт зданий и деревьев.
Скoрoсть ветра измеряется на высoте 10 м (на урoвне рoста челoвека скoрoсть ветра ниже в 1.5-2 раза). Если метеoстанция нахoдится в гoрoде или в лесу, тo скoрoсть ветра занижена на 2-4 м/с пo сравнению с oткрытым местoм. Скoрoсть ветра над акватoриями крупных рек и oзёр, а также на вершинах хoлмoв на 2-5 м/с выше, чем в oбычных услoвиях.
Атмoсфернoе давление в разных тoчках местнoсти мoжет значительнo oтличаться oт давления на метеoстанции, в зависимoсти oт услoвий рельефа (при пoдъёме на 10 м давление пoнижается примернo на 1 мм рт.ст.).